Date,TemperatureHighF,TemperatureAvgF,TemperatureLowF,DewpointHighF,DewpointAvgF,DewpointLowF,HumidityHigh,HumidityAvg,HumidityLow,PressureMaxIn,PressureMinIn,WindSpeedMaxMPH,WindSpeedAvgMPH,GustSpeedMaxMPH,PrecipitationSumIn
2013-1-1,23,21,19,16,12,8,76,66,58,30.12,29.99,132,4,227,0.00
2013-1-2,26,23,21,20,16,-31,82,74,66,30.10,29.97,184,3,227,0.00
2013-1-3,29,27,23,23,21,18,85,78,68,30.05,29.94,111,4,227,0.00
2013-1-4,33,27,25,26,21,-19,89,77,70,30.09,29.85,174,6,227,0.00
2013-1-5,37,30,21,30,23,16,85,74,62,30.18,29.84,184,3,184,0.13
2013-1-6,36,30,28,30,24,19,84,76,69,30.24,29.82,20,5,21,0.03
2013-1-7,40,33,26,29,23,17,75,66,54,30.24,29.88,30,6,30,0.06
2013-1-8,44,35,28,30,28,24,88,74,57,30.13,29.95,16,3,16,0.05
2013-1-9,39,37,30,32,27,22,76,68,60,30.41,29.79,28,6,28,0.08
2013-1-10,42,32,23,28,24,20,88,71,49,30.53,30.09,14,1,14,0.08
2013-1-11,44,39,34,43,37,25,97,93,60,30.09,29.65,144,3,144,0.03
2013-1-12,52,44,34,46,38,28,97,79,53,29.95,29.61,27,6,31,0.01
2013-1-13,34,30,26,30,27,-23,100,88,76,29.98,29.83,125,2,227,0.01
2013-1-14,26,22,19,21,14,-54,86,70,55,30.35,29.97,190,5,227,0.02
2013-1-15,27,23,15,17,13,-24,75,65,15,30.36,30.04,176,5,227,0.02
2013-1-16,30,26,22,27,20,-19,92,78,63,30.04,29.63,192,7,227,0.02
2013-1-17,23,16,13,14,5,-2,82,63,47,30.30,29.97,26,6,26,0.02
2013-1-18,38,21,12,32,13,-28,86,73,57,30.34,29.71,193,4,227,0.00
2013-1-19,38,33,27,35,30,24,95,89,79,29.80,29.42,104,4,227,0.83
2013-1-20,27,15,11,24,8,-28,91,73,62,30.13,29.47,32,7,227,0.00
2013-1-21,11,8,1,7,2,-6,82,77,67,30.07,29.92,16,3,18,0.00
2013-1-22,7,3,1,1,-3,-5,76,75,70,30.20,30.04,12,2,12,0.00
2013-1-23,13,10,4,8,5,-3,83,78,72,30.22,30.01,12,2,14,0.00
2013-1-24,13,4,-8,2,-4,-15,81,70,57,30.63,30.22,7,1,7,0.10
2013-1-25,19,14,6,14,8,-2,83,77,66,30.45,29.95,13,2,13,0.00
2013-1-26,27,19,12,18,13,8,87,79,63,30.39,30.01,7,0,8,0.04
2013-1-27,29,25,18,25,19,13,90,79,67,30.39,30.03,15,3,15,0.00
2013-1-28,33,30,27,31,27,24,93,91,87,30.03,29.81,10,2,16,0.00
2013-1-29,49,38,29,48,36,26,97,93,88,29.99,29.45,16,3,17,0.42
2013-1-30,34,30,19,33,29,15,96,94,86,29.48,29.11,25,7,27,0.17
2013-1-31,19,16,14,15,12,8,87,83,71,29.84,29.23,21,7,21,0.00
2013-2-1,15,13,10,12,9,4,88,81,70,30.10,29.84,21,5,22,0.00
2013-2-2,16,10,7,10,5,1,87,79,63,30.07,29.99,15,2,15,0.00
2013-2-3,17,12,7,13,7,1,88,78,64,29.99,29.79,17,3,18,0.00
2013-2-4,18,14,9,10,7,4,85,75,65,29.97,29.90,9,1,13,0.00
2013-2-5,22,13,5,20,9,0,90,81,68,30.00,29.67,24,4,227,0.00
2013-2-6,26,20,12,20,13,8,89,75,55,30.23,29.99,130,3,227,0.04
2013-2-7,28,25,20,25,22,13,92,89,57,30.20,30.06,80,2,227,0.00
2013-2-8,23,17,2,19,12,-2,91,81,71,30.39,30.08,183,6,227,0.00
2013-2-9,30,12,-9,16,3,-15,84,69,49,30.41,30.19,157,2,227,0.02
2013-2-10,38,29,16,35,23,12,95,78,62,30.20,29.50,161,3,218,0.33
2013-2-11,40,34,27,38,32,21,97,92,78,29.78,29.35,23,5,44,0.30
2013-2-12,27,26,25,26,20,0,100,79,73,29.96,29.78,191,3,219,0.00
2013-2-13,38,32,25,30,26,20,87,80,70,29.84,29.66,157,2,227,0.19
2013-2-14,34,31,22,33,27,-27,98,91,6,29.85,29.58,192,5,227,0.13
2013-2-15,23,20,16,19,13,-32,86,75,63,30.12,29.85,165,6,227,0.00
2013-2-16,20,13,0,11,6,-5,86,73,52,30.16,30.03,16,3,16,0.05
2013-2-17,20,10,-3,13,4,-20,81,76,62,30.19,30.09,138,1,227,0.00
2013-2-18,38,28,14,34,19,-17,95,68,55,30.10,29.41,145,5,227,0.16
2013-2-19,40,26,15,39,24,10,98,91,81,29.85,29.18,60,8,227,0.19
2013-2-20,19,14,12,14,8,-21,83,74,68,30.29,29.85,193,11,227,0.00
2013-2-21,21,16,12,13,9,6,83,73,60,30.43,30.28,54,6,54,0.03
2013-2-22,29,25,17,25,22,9,92,88,82,30.30,29.81,183,2,227,0.00
2013-2-23,33,28,24,28,25,-33,96,91,78,29.84,29.75,192,1,192,0.49
2013-2-24,34,28,20,28,25,18,95,87,71,30.14,29.81,14,2,14,0.17
2013-2-25,37,32,28,27,26,24,94,79,60,30.19,30.12,53,1,53,0.10
2013-2-26,35,31,24,26,24,11,87,76,54,30.18,29.76,175,4,227,0.01
2013-2-27,34,32,31,31,29,26,96,88,79,29.76,29.65,21,8,227,0.00
2013-2-28,32,29,23,30,24,14,97,80,64,30.10,29.70,20,8,20,0.00
2013-3-1,25,20,16,14,11,8,76,69,61,30.23,30.09,134,8,218,0.00
2013-3-2,24,18,11,17,11,4,83,73,65,30.20,30.10,32,6,52,0.00
2013-3-3,24,13,-2,15,8,-7,86,77,65,30.11,30.05,16,4,16,0.00
2013-3-4,26,15,1,15,7,-4,88,72,48,30.17,30.10,12,2,12,0.00
2013-3-5,31,18,1,20,12,-4,85,75,62,30.17,30.01,146,4,227,0.00
2013-3-6,37,30,25,29,26,19,95,82,70,30.28,30.07,20,6,20,0.00
2013-3-7,28,26,24,23,18,16,89,74,62,30.45,30.27,22,5,22,0.00
2013-3-8,39,26,13,27,20,10,91,78,52,30.52,30.38,9,1,10,0.00
2013-3-9,43,31,16,34,24,13,94,75,49,30.38,29.96,165,2,227,0.93
2013-3-10,40,37,35,40,36,34,100,97,91,29.96,29.79,13,3,218,1.85
2013-3-11,46,38,32,45,37,31,100,98,94,29.82,29.45,14,2,14,0.29
2013-3-12,32,27,22,32,25,20,99,93,86,29.86,29.51,16,3,17,0.03
2013-3-13,28,23,18,20,16,12,92,75,53,30.20,29.85,24,8,29,0.00
2013-3-14,34,27,16,22,18,-25,87,69,54,30.24,29.97,52,3,227,0.26
2013-3-15,33,29,21,31,22,11,95,75,59,29.98,29.85,150,7,150,0.03
2013-3-16,24,20,17,15,12,9,87,72,58,30.01,29.90,16,5,16,0.01
2013-3-17,25,19,12,19,8,2,89,62,43,30.34,30.02,15,4,26,0.01
2013-3-18,40,23,8,28,16,3,94,76,44,30.21,29.49,15,2,17,0.00
2013-3-19,30,25,21,29,22,16,95,87,69,29.83,29.45,21,5,24,0.00
2013-3-20,25,23,20,20,14,9,90,71,57,29.89,29.81,21,5,21,0.05
2013-3-21,26,25,23,23,19,16,91,79,66,29.95,29.81,21,8,24,0.00
2013-3-22,32,27,23,24,22,17,89,79,70,30.06,29.93,15,4,16,0.03
2013-3-23,35,30,26,28,24,21,87,77,60,30.12,30.06,10,3,13,0.09
2013-3-24,34,30,24,27,21,17,89,72,49,30.11,29.85,17,4,18,0.01
2013-3-25,37,32,23,28,24,17,82,75,64,30.01,29.83,19,7,20,0.00
2013-3-26,40,34,31,31,28,23,91,77,54,30.16,30.00,23,6,24,0.00
2013-3-27,41,34,26,30,28,25,96,79,63,30.24,30.13,17,4,18,1.28
2013-3-28,43,35,25,30,26,22,89,71,48,30.29,30.22,11,2,11,0.00
2013-3-29,45,33,19,28,22,17,94,67,39,30.31,30.22,12,1,12,0.00
2013-3-30,49,37,20,38,22,15,92,58,31,30.23,29.81,20,3,23,0.08
2013-3-31,42,37,27,40,34,18,98,89,67,29.81,29.59,30,5,35,0.21
2013-4-1,27,24,21,20,16,9,89,72,57,30.09,29.75,29,7,29,0.01
2013-4-2,30,26,20,18,14,8,73,60,50,30.26,30.04,25,5,26,0.00
2013-4-3,35,27,20,18,14,10,73,58,41,30.44,30.25,20,4,21,0.00
2013-4-4,46,35,25,35,23,9,94,64,39,30.28,29.95,24,4,26,0.04
2013-4-5,35,31,26,29,20,15,82,65,51,30.26,30.03,21,5,23,0.00
2013-4-6,44,32,24,31,25,17,90,76,58,30.23,29.57,21,3,21,0.10
2013-4-7,47,38,28,45,33,25,97,84,57,30.06,29.43,21,4,21,0.18
2013-4-8,41,34,25,37,31,24,97,91,74,30.06,29.78,12,2,12,0.19
2013-4-9,41,36,32,39,35,31,99,96,89,30.14,30.01,16,3,16,0.17
2013-4-10,40,35,32,34,31,26,97,86,68,30.15,30.06,19,4,20,0.20
2013-4-11,35,32,29,27,23,19,88,70,55,30.12,29.81,21,5,21,0.02
2013-4-12,35,31,28,33,29,25,96,89,84,29.82,29.61,16,3,18,0.15
2013-4-13,36,33,30,33,30,26,98,89,71,29.93,29.69,21,3,22,0.34
2013-4-14,44,35,25,30,27,22,94,72,49,30.08,29.93,13,2,16,0.17
2013-4-15,52,45,38,52,41,29,100,86,69,29.93,29.74,18,4,19,0.21
2013-4-16,47,40,34,41,32,29,92,74,54,30.35,29.89,20,4,23,0.00
2013-4-17,49,38,26,36,31,24,95,79,56,30.42,30.10,15,2,16,0.02
2013-4-18,48,42,36,48,41,34,100,97,87,30.10,29.37,9,2,9,0.42
2013-4-19,54,38,27,54,33,17,100,81,63,29.69,29.23,32,8,32,0.13
2013-4-20,33,27,23,23,18,14,87,69,52,30.46,29.69,29,5,29,0.01
2013-4-21,48,34,17,28,19,14,90,59,28,30.61,30.37,14,3,15,0.00
2013-4-22,64,46,36,36,31,27,81,57,33,30.37,30.14,19,5,19,0.00
2013-4-23,57,43,32,47,36,30,98,79,58,30.14,29.88,17,4,17,0.26
2013-4-24,44,36,31,32,28,24,96,76,47,30.01,29.91,18,5,18,0.07
2013-4-25,46,38,32,35,30,25,88,73,50,30.29,29.91,24,4,24,0.00
2013-4-26,62,47,30,42,33,26,86,62,37,30.36,30.16,27,4,27,0.00
2013-4-27,70,58,45,51,46,39,86,67,39,30.24,30.11,15,4,17,0.05
2013-4-28,74,53,37,49,41,36,98,69,30,30.12,29.83,14,1,14,0.00
2013-4-29,64,54,47,56,52,46,100,90,70,29.90,29.85,10,2,11,0.08
2013-4-30,74,62,48,62,56,48,100,84,56,29.92,29.79,28,5,28,0.21
2013-5-1,73,62,44,61,52,36,84,69,55,30.30,29.90,19,6,19,0.00
2013-5-2,62,47,38,46,38,33,86,73,55,30.31,30.17,25,6,25,0.00
2013-5-3,73,53,37,52,42,33,89,70,46,30.24,30.05,17,3,17,0.00
2013-5-4,77,62,46,51,42,19,88,54,18,30.14,30.05,16,2,16,0.00
2013-5-5,75,60,41,43,36,26,80,44,23,30.16,30.04,16,2,17,0.00
2013-5-6,73,60,42,46,37,31,87,47,24,30.13,30.02,19,4,21,0.00
2013-5-7,76,61,42,44,37,28,83,45,18,30.12,30.01,19,3,19,0.00
2013-5-8,75,62,46,48,40,29,87,48,21,30.07,29.99,16,3,16,0.00
2013-5-9,72,54,44,50,43,36,90,69,33,30.05,29.96,21,5,21,0.06
2013-5-10,47,41,38,45,37,34,93,87,81,30.06,29.96,24,5,24,0.64
2013-5-11,48,38,33,42,35,30,93,87,75,29.97,29.72,17,3,17,0.20
2013-5-12,39,36,34,34,28,22,91,74,57,30.09,29.77,33,9,33,0.07
2013-5-13,49,40,28,31,24,17,86,56,31,30.17,30.04,16,2,18,0.00
2013-5-14,67,55,41,45,36,24,66,49,36,30.04,29.62,19,3,20,0.00
2013-5-15,71,60,51,48,44,38,77,56,32,29.80,29.46,25,4,25,0.00
2013-5-16,59,52,42,45,40,37,90,64,46,30.11,29.77,17,4,17,0.00
2013-5-17,66,53,38,46,41,35,92,68,40,30.22,30.10,9,1,10,0.00
2013-5-18,71,59,50,50,45,40,83,62,41,30.21,30.05,11,1,11,0.00
2013-5-19,83,68,55,65,53,42,79,60,48,30.05,29.86,16,3,16,0.00
2013-5-20,85,68,59,70,62,55,95,82,54,29.90,29.72,20,1,21,0.38
2013-5-21,78,64,57,65,60,54,99,87,56,29.81,29.67,16,2,16,0.43
2013-5-22,62,57,53,62,56,52,100,99,96,29.77,29.68,14,3,15,0.18
2013-5-23,53,46,40,52,41,33,99,84,65,30.27,29.76,26,10,27,0.37
2013-5-24,53,43,34,38,34,29,90,70,52,30.42,30.26,18,5,18,0.00
2013-5-25,60,47,32,43,36,30,98,71,42,30.46,30.34,18,3,19,0.00
2013-5-26,64,49,34,45,37,32,96,68,33,30.41,30.25,18,2,18,0.00
2013-5-27,73,58,38,46,37,29,92,53,21,30.29,30.02,17,2,17,0.00
2013-5-28,59,56,53,58,51,36,99,83,43,30.02,29.76,7,1,11,0.36
2013-5-29,70,59,38,64,57,0,100,94,81,29.97,29.76,10,1,10,0.01
2013-5-30,86,72,57,74,65,56,100,82,54,29.96,29.87,26,3,26,0.00
2013-5-31,80,71,65,68,64,61,98,79,53,29.95,29.77,22,4,22,0.31
2013-6-1,76,67,57,67,63,54,98,87,70,29.79,29.66,22,3,24,0.16
2013-6-2,59,47,38,58,43,35,97,88,70,30.04,29.62,21,4,21,0.15
2013-6-3,59,48,34,45,39,32,95,72,47,30.15,30.03,25,3,25,0.00
2013-6-4,61,49,35,48,40,33,98,74,41,30.25,30.15,14,2,14,0.00
2013-6-5,58,54,49,54,48,40,91,82,69,30.23,30.11,9,1,11,0.00
2013-6-6,68,58,48,49,44,38,82,60,39,30.11,29.97,16,2,16,0.00
2013-6-7,71,58,46,50,44,37,93,63,30,30.01,29.92,21,3,21,0.00
2013-6-8,68,57,44,55,47,40,93,72,39,30.09,29.94,10,2,12,0.05
2013-6-9,76,62,42,59,51,40,97,71,53,30.15,30.01,11,2,12,0.00
2013-6-10,71,64,58,63,57,50,93,81,59,30.01,29.83,13,2,13,0.00
2013-6-11,76,63,57,65,59,55,97,87,64,29.92,29.84,15,2,15,0.00
2013-6-12,77,64,55,65,56,49,100,78,43,29.95,29.77,14,2,14,0.00
2013-6-13,68,60,54,59,54,50,90,80,71,30.04,29.75,24,7,25,0.00
2013-6-14,70,58,45,51,44,35,96,64,30,30.16,30.05,13,3,13,0.00
2013-6-15,74,60,44,62,50,40,91,72,48,30.07,29.85,12,2,12,0.07
2013-6-16,77,64,56,65,59,52,99,86,56,29.89,29.76,16,3,16,0.52
2013-6-17,68,59,52,60,55,50,97,87,70,30.04,29.83,17,3,17,0.00
2013-6-18,68,58,45,54,47,36,98,71,31,30.14,30.03,17,3,17,0.00
2013-6-19,72,58,42,53,46,40,97,69,38,30.22,30.13,18,2,18,0.00
2013-6-20,81,66,47,61,52,44,92,64,41,30.20,30.12,14,3,14,0.00
2013-6-21,83,70,55,68,61,53,97,75,56,30.19,29.95,22,3,22,0.00
2013-6-22,76,65,60,67,62,59,99,90,72,30.11,29.99,18,2,19,0.00
2013-6-23,85,73,59,72,67,58,100,82,59,30.05,29.88,16,3,16,0.00
2013-6-24,83,76,68,72,69,66,92,78,66,30.01,29.88,14,3,14,0.00
2013-6-25,77,71,64,68,66,62,94,83,69,29.90,29.84,14,2,14,0.00
2013-6-26,86,71,60,70,65,59,100,82,52,29.86,29.77,15,2,15,0.00
2013-6-27,81,69,62,67,64,60,98,85,54,29.82,29.68,14,2,15,0.04
2013-6-28,72,68,61,68,63,60,97,84,78,29.68,29.13,16,4,16,0.01
2013-6-29,74,66,60,62,59,55,95,80,62,29.82,29.63,15,4,15,0.01
2013-6-30,75,66,56,56,50,39,88,59,30,30.06,29.82,19,5,21,0.00
2013-7-1,76,60,49,58,49,41,95,71,35,30.19,29.67,19,2,19,0.00
2013-7-2,72,61,48,52,47,41,95,64,35,30.19,30.10,15,2,15,0.00
2013-7-3,78,66,54,60,54,48,85,66,47,30.14,30.04,13,2,13,0.00
2013-7-4,78,68,60,65,61,58,97,80,59,30.11,30.03,14,2,14,0.00
2013-7-5,85,73,61,67,61,56,88,68,41,30.09,30.01,12,2,12,0.00
2013-7-6,86,74,61,66,60,56,87,65,42,30.07,29.98,12,2,16,0.00
2013-7-7,85,72,62,69,64,58,96,77,48,30.01,29.94,15,2,15,0.03
2013-7-8,76,70,66,71,68,64,96,93,81,30.02,29.93,9,2,9,0.48
2013-7-9,80,72,66,72,68,65,97,88,71,30.01,29.74,10,1,10,0.04
2013-7-10,71,67,58,69,61,55,96,81,62,29.97,29.71,21,4,21,1.12
2013-7-11,73,63,53,61,56,51,98,77,53,30.12,29.96,16,4,17,0.00
2013-7-12,82,66,50,61,55,48,97,72,36,30.20,30.10,13,2,15,0.00
2013-7-13,83,71,59,65,60,55,92,70,49,30.22,30.12,13,3,14,0.00
2013-7-14,86,72,57,68,63,55,96,73,50,30.28,30.21,14,2,16,0.00
2013-7-15,88,76,62,71,66,60,97,74,49,30.33,30.26,11,2,12,0.00
2013-7-16,92,78,64,74,69,63,96,75,54,30.31,30.22,11,2,12,0.00
2013-7-17,91,82,72,74,71,67,91,71,48,30.26,30.14,13,3,15,0.00
2013-7-18,90,79,71,76,71,68,94,78,54,30.15,29.83,18,2,20,0.00
2013-7-19,86,79,65,74,69,60,91,73,62,29.83,29.68,23,5,23,0.31
2013-7-20,69,64,54,62,54,45,95,70,46,30.02,29.76,20,5,20,0.00
2013-7-21,74,60,44,59,52,42,94,76,47,30.07,29.96,13,2,14,0.00
2013-7-22,86,73,59,66,62,55,91,70,49,29.96,29.68,15,3,15,0.00
2013-7-23,77,63,57,66,54,45,92,73,61,29.95,29.66,28,8,29,0.22
2013-7-24,69,59,44,53,48,42,95,69,49,30.08,29.95,14,3,14,0.00
2013-7-25,78,64,48,58,52,46,95,69,40,30.09,30.00,14,2,14,0.00
2013-7-26,74,61,56,65,57,53,100,88,63,30.02,29.36,16,2,16,0.66
2013-7-27,61,58,56,61,56,49,100,94,78,29.85,29.33,14,4,16,0.17
2013-7-28,64,57,53,55,53,50,97,86,64,29.91,29.76,17,2,17,0.11
2013-7-29,68,59,54,58,55,52,99,87,66,30.20,29.91,12,2,14,0.11
2013-7-30,74,60,50,61,55,49,97,85,55,30.25,30.12,8,2,8,0.11
2013-7-31,76,66,57,64,60,56,96,82,61,30.13,29.92,25,2,25,0.11
2013-8-1,72,64,56,65,58,55,100,83,57,29.93,29.88,15,2,15,0.48
2013-8-2,72,63,55,64,58,54,97,83,57,29.94,29.82,14,3,15,0.11
2013-8-3,67,60,52,60,55,51,99,82,68,30.12,29.94,17,4,18,0.23
2013-8-4,68,62,52,56,52,47,96,72,47,30.23,30.11,16,4,16,0.11
2013-8-5,70,59,46,56,52,45,96,80,54,30.14,29.92,9,1,9,0.11
2013-8-6,76,68,57,68,61,54,91,80,69,29.92,29.82,10,2,12,0.11
2013-8-7,73,66,59,66,62,55,98,86,72,30.01,29.69,29,4,31,0.11
2013-8-8,72,61,50,57,53,48,98,77,50,30.08,30.00,11,2,11,0.11
2013-8-9,73,62,49,61,54,47,96,78,56,30.07,29.93,20,4,22,0.11
2013-8-10,70,60,48,57,51,46,97,76,53,30.17,30.06,13,1,13,0.11
2013-8-11,74,63,51,64,55,50,94,78,54,30.13,30.05,10,2,10,0.11
2013-8-12,76,63,56,63,58,51,99,84,61,30.06,29.90,22,4,22,0.11
2013-8-13,61,57,53,52,47,45,80,70,60,30.13,29.97,26,9,26,0.11
2013-8-14,56,51,46,51,48,44,96,89,75,30.18,29.63,11,2,14,0.00
2013-8-15,73,60,49,61,54,48,98,80,51,29.64,29.58,11,2,12,0.00
2013-8-16,78,61,47,65,56,47,100,88,51,30.21,29.63,11,1,12,0.00
2013-8-17,80,65,50,64,57,50,100,79,48,30.28,30.19,10,1,12,0.00
2013-8-18,81,66,52,63,58,50,100,76,44,30.23,30.10,11,2,13,0.00
2013-8-19,80,68,56,67,61,54,94,79,58,30.11,30.00,14,3,15,0.00
2013-8-20,84,74,64,71,66,61,93,77,58,30.08,30.00,19,3,19,0.00
2013-8-21,88,77,68,74,69,64,100,76,60,30.04,29.91,24,4,26,0.15
2013-8-22,76,69,58,71,64,57,100,87,56,30.13,29.92,18,3,18,0.14
2013-8-23,76,63,49,65,58,49,100,85,58,30.23,30.13,16,3,16,0.00
2013-8-24,81,67,54,64,59,53,100,79,52,30.30,30.21,10,2,12,0.00
2013-8-25,88,75,58,71,63,56,95,69,52,30.22,30.01,16,5,24,0.04
2013-8-26,84,76,66,72,68,64,95,76,56,30.08,29.97,15,3,17,0.13
2013-8-27,75,70,65,71,68,63,97,93,85,29.99,29.87,7,1,8,0.07
2013-8-28,82,71,64,73,68,63,99,89,67,30.07,29.87,12,3,12,0.01
2013-8-29,87,73,61,72,67,60,99,82,49,30.10,29.97,8,1,9,0.00
2013-8-30,76,71,67,73,67,63,97,89,80,29.98,29.78,17,4,17,0.34
2013-8-31,77,68,61,66,63,60,97,85,65,29.91,29.83,13,2,13,0.07
2013-9-1,76,66,59,67,63,57,98,90,69,29.87,29.70,19,3,19,0.02
2013-9-2,61,57,54,58,52,49,92,85,73,29.94,29.79,20,6,20,0.02
2013-9-3,69,62,52,57,53,49,95,74,52,30.03,29.92,19,4,19,0.02
2013-9-4,65,60,53,61,54,45,97,82,59,30.17,29.61,17,4,17,0.02
2013-9-5,62,53,43,50,44,40,96,72,46,30.33,30.16,15,3,15,0.19
2013-9-6,75,61,44,60,51,41,92,72,56,30.26,29.97,13,3,13,0.02
2013-9-7,77,69,66,70,65,55,97,87,68,30.03,29.88,18,3,19,0.10
2013-9-8,71,61,52,63,54,50,95,78,52,30.18,30.02,17,3,18,0.20
2013-9-9,75,64,55,70,59,50,95,84,74,30.06,29.75,12,3,13,0.10
2013-9-10,86,78,68,72,70,65,95,77,60,30.00,29.74,15,3,16,0.02
2013-9-11,76,69,64,68,65,62,97,88,72,30.00,29.91,15,2,15,0.10
2013-9-12,67,60,51,65,53,44,96,80,64,30.08,29.91,34,8,34,0.07
2013-9-13,56,50,42,48,42,39,92,76,57,30.19,30.07,19,6,19,0.02
2013-9-14,65,52,38,52,45,37,95,80,58,30.16,30.01,15,2,15,0.01
2013-9-15,59,56,52,57,53,46,96,90,81,30.20,29.99,24,3,25,0.01
2013-9-16,56,49,41,47,41,37,89,74,54,30.43,30.20,16,4,16,0.04
2013-9-17,67,50,38,49,42,35,93,76,39,30.42,30.19,9,2,11,0.03
2013-9-18,71,60,46,58,52,42,94,75,58,30.20,29.95,15,3,15,0.03
2013-9-19,78,68,62,72,63,56,98,84,66,29.97,29.35,14,3,14,0.03
2013-9-20,68,65,60,67,62,55,100,91,86,29.72,29.19,21,3,21,0.03
2013-9-21,60,54,49,55,47,38,92,78,64,29.92,29.72,23,7,26,0.03
2013-9-22,52,48,45,43,40,38,83,74,65,30.12,29.91,18,4,21,0.03
2013-9-23,63,48,34,47,41,32,96,80,51,30.20,30.11,12,2,12,0.02
2013-9-24,66,51,37,52,46,36,96,84,57,30.17,30.02,15,2,15,0.03
2013-9-25,69,53,40,53,47,39,97,82,50,30.06,30.00,12,1,12,0.03
2013-9-26,72,53,40,55,47,38,97,82,42,30.14,30.03,13,2,14,0.03
2013-9-27,79,58,41,57,49,39,98,75,39,30.23,30.13,11,1,12,0.03
2013-9-28,76,63,51,58,54,48,95,73,47,30.16,29.84,18,3,18,0.03
2013-9-29,71,58,44,59,50,42,96,78,54,30.04,29.84,19,3,21,0.03
2013-9-30,68,53,39,52,46,38,97,79,50,30.02,29.85,11,2,12,0.03
2013-10-1,77,64,52,63,57,47,88,78,57,29.88,29.73,23,4,24,0.03
2013-10-2,69,60,49,60,47,39,89,66,35,30.08,29.85,12,2,12,0.03
2013-10-3,67,55,42,58,52,39,97,89,69,30.08,29.91,13,1,13,0.03
2013-10-4,59,56,55,58,55,53,97,94,91,30.11,29.91,13,2,13,0.03
2013-10-5,60,56,54,56,54,52,96,93,86,30.10,29.86,14,3,14,0.04
2013-10-6,68,58,51,66,56,49,98,95,90,29.88,29.62,16,2,16,0.08
2013-10-7,57,50,42,51,46,40,96,87,68,30.07,29.56,20,4,20,0.03
2013-10-8,68,52,38,53,45,37,97,79,48,30.21,30.06,13,3,13,0.06
2013-10-9,73,59,50,56,50,45,95,72,50,30.25,30.15,13,2,13,0.05
2013-10-10,74,54,42,53,47,40,95,78,37,30.22,30.12,13,2,13,0.03
2013-10-11,71,53,40,54,46,39,98,79,39,30.16,30.04,33,1,33,0.03
2013-10-12,78,61,45,59,50,41,91,70,38,30.06,29.92,36,3,36,0.03
2013-10-13,61,53,43,56,46,39,87,77,66,30.40,30.04,14,2,16,0.03
2013-10-14,57,45,32,47,39,31,96,80,53,30.46,30.28,12,2,12,0.03
2013-10-15,60,48,36,56,44,34,97,88,67,30.29,29.71,13,1,13,0.03
2013-10-16,58,52,49,56,48,42,96,88,78,29.86,29.68,16,3,16,0.03
2013-10-17,52,47,42,45,41,39,94,82,64,29.87,29.74,9,1,11,0.03
2013-10-18,54,44,37,50,42,35,96,92,76,29.82,29.74,13,2,13,0.03
2013-10-19,50,43,37,44,39,32,96,86,59,29.80,29.68,15,2,15,0.03
2013-10-20,51,43,35,43,38,33,96,84,57,29.82,29.67,14,3,14,0.03
2013-10-21,48,43,34,47,39,30,96,88,71,29.77,29.62,19,4,21,0.03
2013-10-22,43,39,34,38,34,29,92,83,70,29.87,29.65,24,5,24,0.03
2013-10-23,42,36,32,36,31,28,95,82,59,29.87,29.82,20,3,20,0.31
2013-10-24,44,39,35,37,34,31,94,84,69,30.12,29.85,22,4,22,1.52
2013-10-25,43,39,32,38,32,28,95,78,57,30.23,29.80,28,4,28,0.03
2013-10-26,46,42,38,41,35,31,86,74,69,29.96,29.15,31,8,31,0.01
2013-10-27,47,41,34,39,35,31,95,81,61,29.99,29.85,20,3,21,0.00
2013-10-28,46,36,26,38,27,20,80,69,53,30.49,29.98,25,6,25,0.01
2013-10-29,40,31,22,32,26,18,90,79,61,30.50,30.23,8,1,9,2.03
2013-10-30,54,44,36,46,39,31,90,81,67,30.24,29.85,9,1,11,0.30
2013-10-31,60,55,50,59,53,46,100,96,78,29.85,29.04,13,2,14,0.45
2013-11-1,54,47,42,54,45,36,99,91,80,29.68,28.99,25,5,25,0.53
2013-11-2,42,38,31,37,32,27,90,80,69,30.16,29.67,14,4,14,0.21
2013-11-3,46,35,27,32,29,25,94,79,54,30.38,30.15,13,2,13,0.03
2013-11-4,50,42,35,33,29,24,81,62,40,30.40,30.16,23,6,23,0.01
2013-11-5,57,50,46,48,43,31,94,76,57,30.27,30.00,15,3,15,0.03
2013-11-6,50,43,38,48,40,30,100,88,75,30.01,29.27,21,6,21,0.13
2013-11-7,39,37,34,33,30,29,89,76,69,30.08,29.54,20,4,20,0.05
2013-11-8,40,36,31,32,28,25,91,76,59,30.21,30.07,24,2,24,0.10
2013-11-9,45,40,35,44,36,28,97,86,71,30.08,29.64,26,5,26,0.50
2013-11-10,42,40,37,36,32,29,90,75,64,30.20,29.79,22,7,31,0.09
2013-11-11,40,32,27,36,25,16,96,77,57,30.37,29.96,30,11,32,0.31
2013-11-12,30,28,26,23,18,15,83,67,61,30.55,30.37,26,7,32,0.05
2013-11-13,40,33,22,29,23,16,86,69,53,30.44,29.92,26,6,36,0.05
2013-11-14,46,41,38,37,31,27,87,67,61,29.95,29.82,20,5,23,0.05
2013-11-15,52,44,37,39,36,32,84,74,58,29.96,29.84,15,3,15,0.05
2013-11-16,55,45,36,51,41,31,92,85,77,29.98,29.53,31,5,31,0.09
2013-11-17,61,54,44,59,53,41,100,95,89,29.55,29.01,28,6,28,1.91
2013-11-18,44,35,32,41,26,21,91,70,60,30.12,29.27,37,9,37,0.07
2013-11-19,34,30,25,24,22,19,86,70,61,30.36,29.85,20,4,20,0.11
2013-11-20,43,35,28,30,26,22,78,68,48,30.35,30.19,19,4,19,0.09
2013-11-21,43,39,36,39,35,28,95,84,68,30.21,30.15,9,1,10,0.05
2013-11-22,40,32,29,39,29,22,95,87,68,30.37,30.17,25,6,25,0.08
2013-11-23,32,27,22,23,19,14,88,73,63,30.30,30.23,28,8,28,0.00
2013-11-24,23,21,19,15,12,10,81,69,64,30.54,30.15,23,5,23,0.00
2013-11-25,35,30,23,30,24,14,90,78,61,30.15,29.86,21,6,27,0.00
2013-11-26,35,29,22,31,25,13,93,84,68,30.07,29.91,24,6,24,0.00
2013-11-27,24,22,16,16,12,8,78,65,54,30.18,29.99,28,10,29,0.00
2013-11-28,24,17,11,18,12,5,89,80,73,30.43,30.17,9,1,10,0.00
2013-11-29,30,20,3,22,14,-2,88,78,66,30.61,30.43,13,2,14,0.05
2013-11-30,36,32,25,32,25,17,89,77,70,30.46,30.02,19,4,19,0.04
2013-12-1,35,32,30,31,28,24,91,83,75,30.12,30.02,7,2,8,0.01
2013-12-2,32,30,28,26,24,21,86,77,72,30.03,29.90,9,1,9,0.00
2013-12-3,30,26,22,27,22,17,91,81,75,29.98,29.90,13,2,13,0.00
2013-12-4,46,35,30,44,33,27,96,92,88,29.92,29.42,20,3,21,0.26
2013-12-5,49,32,21,46,25,12,95,75,65,30.10,29.41,35,8,35,0.01
2013-12-6,21,20,19,13,11,9,73,67,60,30.35,30.09,19,5,23,0.00
2013-12-7,20,18,17,12,8,5,77,65,58,30.54,30.35,18,5,20,0.00
2013-12-8,19,18,16,16,10,6,86,71,59,30.52,30.02,9,2,16,0.00
2013-12-9,27,19,12,23,14,6,89,83,67,30.02,29.76,25,4,34,0.00
2013-12-10,17,13,9,12,7,3,82,75,65,30.04,29.76,21,5,21,0.00
2013-12-11,15,13,12,8,6,3,81,72,64,30.33,30.04,19,4,19,0.00
2013-12-12,20,15,10,13,8,1,84,74,62,30.31,30.03,20,4,24,0.00
2013-12-13,20,12,5,10,2,-5,73,62,55,30.40,30.04,15,5,25,0.00
2013-12-14,18,13,6,13,7,-4,83,75,65,30.41,29.89,12,2,12,0.00
2013-12-15,20,18,13,17,13,6,88,83,73,29.98,29.71,23,4,23,0.00
2013-12-16,17,10,-5,11,3,-11,83,74,58,30.16,29.92,12,2,13,0.10
2013-12-17,26,21,15,23,17,10,91,85,80,29.93,29.78,14,3,14,0.00
2013-12-18,26,22,18,23,15,12,89,76,71,30.01,29.72,17,3,17,0.00
2013-12-19,30,24,18,26,19,13,91,82,76,30.08,29.71,16,4,16,0.00
2013-12-20,22,20,18,20,17,14,89,87,78,30.03,29.85,10,5,14,0.00
2013-12-21,26,24,21,22,20,18,91,87,83,29.97,29.82,8,2,18,0.00
2013-12-22,24,20,14,20,16,10,88,85,79,30.05,29.78,13,6,21,0.00
2013-12-23,14,12,8,10,7,4,84,82,78,30.34,30.05,13,2,14,0.00
2013-12-24,12,0,-14,4,-6,-20,87,75,61,30.49,30.33,8,0,8,0.05
2013-12-25,23,18,8,20,14,4,90,84,79,30.40,30.01,20,4,20,0.00
2013-12-26,23,21,19,21,17,14,94,84,73,30.20,29.97,17,2,17,0.00
2013-12-27,37,25,17,32,21,12,87,82,77,30.23,29.87,20,3,20,0.00
2013-12-28,42,35,27,35,31,25,98,86,74,29.99,29.74,12,2,16,0.26
2013-12-29,36,21,11,34,17,0,97,83,59,30.06,29.69,23,8,24,0.00
2013-12-30,14,12,11,9,6,0,83,75,61,30.21,30.05,16,3,16,0.00
2013-12-31,11,10,8,7,4,0,85,77,65,30.31,29.99,23,4,23,0.00
2014-1-1,10,9,5,2,0,-4,74,66,58,30.44,30.30,11,3,11,0.00
2014-1-2,8,-2,-11,-1,-9,-17,78,74,60,30.39,30.27,7,1,12,0.00